Regional Weather Roundup
Issued by NWS

Home | Current Version | Previous Version | Graphics & Text | Print | Product List | Glossary On
Versions: 1 2 3 4 5 6 7 8 9 10 11 12 13 14 15 16 17 18 19 20 21 22 23 24 25 26 27 28 29 30 31 32 33 34 35 36 37 38 39 40 41 42 43 44 45 46 47 48 49 50
000
ASUS45 KBOU 011607
RWRCO

WEATHER ROUNDUP FOR COLORADO
NATIONAL WEATHER SERVICE DENVER/BOULDER CO
1000 AM MDT MON JUN 01 2015

NOTE: "FAIR" INDICATES FEW OR NO CLOUDS BELOW 12000 FEET WITH NO
SIGNIFICANT WEATHER AND/OR OBSTRUCTIONS TO VISIBILITY.

COZ001>005-013-030-031-011700-
...NORTHWEST COLORADO...

CITY           SKY/WX    TMP DP  RH WIND       PRES   REMARKS
CRAIG          SUNNY     70  48  45 E12       30.14F
HAYDEN         MOSUNNY   66  39  37 E15       30.17F
MEEKER         MOSUNNY   69  48  47 VRB3      30.16F
MOUNT WERNER   NOT AVBL
STEAMBOAT SPGS MOSUNNY   63  46  54 SW3       30.21S
WALDEN         MOSUNNY   63  37  39 SE7       30.28F
$$

COZ006>008-011-011700-
...WEST CENTRAL VALLEYS...

CITY           SKY/WX    TMP DP  RH WIND       PRES   REMARKS
GRAND JUNCTION SUNNY     75  43  31 SE14      30.06F
MONTROSE       SUNNY     77  42  28 E10       30.16F
EAGLE          MOSUNNY   72  48  43 CALM      30.26F
RIFLE          MOSUNNY   68  45  43 N3        30.13F
DELTA          SUNNY     78  41  26 NE7       30.13F
NUCLA          SUNNY     75  37  25 CALM      30.20S
$$

COZ017>023-064>068-011700-
...SOUTHWEST COLORADO...

CITY           SKY/WX    TMP DP  RH WIND       PRES   REMARKS
DURANGO        MOSUNNY   69  41  36 E7        30.28S
CORTEZ         SUNNY     76  42  29 CALM      30.19F
PAGOSA SPRINGS MOSUNNY   64  40  41 N8        30.36F
TELLURIDE      CLOUDY    64  34  32 CALM      30.41F
WOLF CREEK PAS NOT AVBL
$$

COZ009-010-012-014-032>034-037-058>063-011700-
...CENTRAL COLORADO...

CITY           SKY/WX    TMP DP  RH WIND       PRES   REMARKS
ASPEN          MOSUNNY   63  40  42 NW7       30.29S
BUENA VISTA    MOSUNNY   64  35  33 CALM      30.32F
COPPER MTN     NOT AVBL
BERTHOUD PASS  FAIR      43  36  75 NW12      30.60S
COTTONWOOD PAS NOT AVBL
GUNNISON       MOSUNNY   57  37  47 CALM      30.38F
KREMMLING      MOSUNNY   55  39  54 E3        30.31F
LEADVILLE      SUNNY     56  34  43 S13       30.41F
SALIDA         MOSUNNY   69  43  38 CALM      30.36F
SUNLIGHT       MOSUNNY   52  34  50 CALM      30.50S
WILKERSON PASS SUNNY     54  28  37 SW5       30.55S
$$

COZ069>075-011700-
...SAN LUIS VALLEY/SANGRE DE CRISTO MOUNTAINS...

CITY           SKY/WX    TMP DP  RH WIND       PRES   REMARKS
ALAMOSA        SUNNY     65  40  39 N8G20     30.33S
LA VETA PASS   SUNNY    N/A N/A N/A MISG      30.47S
SAGUACHE       SUNNY     63  41  45 S5        30.36F
$$

COZ035-036-038>040-011700-
...NORTHERN COLORADO FRONT RANGE...

CITY           SKY/WX    TMP DP  RH WIND       PRES   REMARKS
DENVER INTL AP MOSUNNY   75  45  34 CALM      30.10S
DMNS CITY PARK   N/A     79  41  25 NW3       30.08S
AURORA         NOT AVBL
FRONT RANGE AP MOSUNNY   77  46  33 SW3       30.12S
ERIE MUNI ARPT MOSUNNY   72  55  53 N9        30.10R
BOULDER MUN AP MOSUNNY   70  48  46 SE5       30.09F
CENTENNIAL     MOSUNNY   76  37  24 CALM      30.13F
BROOMFIELD     MOSUNNY   75  43  31 CALM      30.13R
FORT COLLINS   MOSUNNY   70  54  56 S6        30.10F
LONGMONT       MOSUNNY   71  52  50 NE7       30.10F
$$

COZ041-046-047-076>085-087-088-011700-
...PIKES PEAK/PALMER DIVIDE AND SOUTHERN FOOTHILLS...

CITY           SKY/WX    TMP DP  RH WIND       PRES   REMARKS
COLO. SPRINGS  MOSUNNY   73  45  36 SE8       30.17F
A. F. ACADEMY  SUNNY     74  43  31 S8        30.18S
ELLICOTT       SUNNY    N/A N/A N/A S5        30.16S
FALCON         SUNNY     74  37  26 SE6       30.22F
FORT CARSON    NOT AVBL
LIMON          SUNNY     73  53  49 S5        30.12S
MONUMENT HILL  SUNNY     72  36  26 CALM      30.23S
TRINIDAD       SUNNY     74  49  41 SE5       30.16S
$$

COZ042>045-048>051-090-091-011700-
...NORTHEAST COLORADO...

CITY           SKY/WX    TMP DP  RH WIND       PRES   REMARKS
GREELEY ARPT   SUNNY     70  55  60 CALM      30.09F
AKRON          SUNNY     76  50  40 SE6       30.07F
BURLINGTON     SUNNY     79  54  41 VRB3      30.07S
WRAY           SUNNY     73  60  63 E6        30.05S
STERLING       SUNNY     72  59  64 S5        30.04F
HOLYOKE        NOT AVBL
FORT MORGAN    SUNNY     73 -14   3 SE3       30.07F
$$

COZ086-089-092>099-011700-
...SOUTHEAST COLORADO...

CITY           SKY/WX    TMP DP  RH WIND       PRES   REMARKS
PUEBLO         SUNNY     72  49  44 W6        30.09F
LA JUNTA       SUNNY     74  57  55 W6        30.07S
LAMAR          SUNNY     74  56  53 NW5       30.03F
SPRINGFIELD      N/A     78  55  44 SW8       30.07F
$$


USA.gov is the U.S. government's official web portal to all federal, state and local government web resources and services.